Regional Weather Roundup
Issued by NWS

Home | Current Version | Previous Version | Text Only | Print | Product List | Glossary Off
Versions: 1 2 3 4 5 6 7 8 9 10 11 12 13 14 15 16 17 18 19 20 21 22 23 24 25 26 27 28 29 30 31 32 33 34 35 36 37 38 39 40 41 42 43 44 45 46 47 48 49 50

000
ASUS43 KMKX 042000
RWRWI

WISCONSIN REGIONAL WEATHER ROUNDUP
NATIONAL WEATHER SERVICE MILWAUKEE/SULLIVAN WI
300 PM CDT TUE AUG 04 2015

NOTE: "FAIR" INDICATES FEW OR NO CLOUDS BELOW 12,000 FEET WITH NO
SIGNIFICANT WEATHER AND/OR OBSTRUCTIONS TO VISIBILITY.

WIZ001-002-006>008-014>016-023>028-042100-
NORTHWEST WISCONSIN

CITY           SKY/WX    TMP DP  RH WIND       PRES   REMARKS
SUPERIOR ARPT  PTSUNNY   73  54  52 N7        29.97R
ASHLAND        PTSUNNY   73  56  54 N8        29.99R
HAYWARD        MOSUNNY   75  50  41 NW7       29.98S
SIREN          PTSUNNY   76  51  41 W10       29.98S
CUMBERLAND     CLOUDY    72  52  49 N10       29.98F
RICE LAKE      CLOUDY    75  53  46 NW6       30.00S
CHETEK         CLOUDY    75  54  48 W3        29.99S
LADYSMITH      CLOUDY    73  51  45 W8        30.00S
EAU CLAIRE     NOT AVBL
MENOMONIE      MOSUNNY   79  50  35 W9G18     29.98F
NEW RICHMOND   MOSUNNY   77  49  37 NW5       29.98F
OSCEOLA        MOSUNNY   79  52  39 W10G17    30.00F
$$

WIZ003>005-009-010-017-018-042100-
NORTH CENTRAL WISCONSIN

CITY           SKY/WX    TMP DP  RH WIND       PRES   REMARKS
MANITOWISH WTR PTSUNNY   67  51  56 NW8       29.99S
ARBOR VITAE    PTSUNNY   67  52  58 N7        29.99R
WOODRUFF       PTSUNNY   67  52  58 N7        29.99R
RHINELANDER    CLOUDY    70  50  49 NW6       29.99R
EAGLE RIVER    MOSUNNY   69  47  45 NW12      29.98S
LAND O LAKES   CLOUDY    68  48  49 NW10      30.00R
PHILLIPS       CLOUDY    69  53  55 W6        29.98S
TOMAHAWK       CLOUDY    69  51  52 NW6       29.98S
MEDFORD        CLOUDY    71  52  51 W8G18     30.00R
MERRILL        NOT AVBL
$$

WIZ029-030-035-036-043>047-042100-
CENTRAL WISCONSIN

CITY           SKY/WX    TMP DP  RH WIND       PRES   REMARKS
WAUSAU         CLOUDY    75  49  39 NW14      29.96S
MOSINEE        NOT AVBL
MARSHFIELD     CLOUDY    74  49  41 NW9G18    29.99S
STEVENS POINT  CLOUDY    73  52  46 W9G17     29.98S
WAUPACA        CLOUDY    78  49  36 NW12G18   29.97R
WAUTOMA        NOT AVBL
WISC RAPIDS    CLOUDY    76  49  38 NW10      29.99F
CAMP DOUGLAS   NOT AVBL
$$

WIZ011>013-019>022-031-037>040-048>050-042100-
NORTHEAST WISCONSIN

CITY           SKY/WX    TMP DP  RH WIND       PRES   REMARKS
ANTIGO         MOSUNNY   72  49  44 NW12      29.97S
SHAWANO        PTSUNNY   75  50  41 W6        29.95R
OCONTO         PTSUNNY   74  52  46 NW6       29.93R
STURGEON BAY   SUNNY     72  54  53 N7        29.96S
GREEN BAY      MOSUNNY   78  55  44 W12       29.94S
MANITOWOC      NOT AVBL
APPLETON       PTSUNNY   75  46  35 NW14G21   29.96S
CLINTONVILLE   MOSUNNY   77  45  31 NW12      29.95R
OSHKOSH        MOSUNNY   78  51  38 W14G22    29.96S
$$

WIZ032>034-041-042-053>061-042100-
SOUTHWEST WISCONSIN

CITY           SKY/WX    TMP DP  RH WIND       PRES   REMARKS
LA CROSSE      MOSUNNY   81  51  35 NW12      29.98F HX  80
SPARTA         PTSUNNY   80  47  31 NW13G22   30.00S
VIROQUA        MOSUNNY   76  53  45 NW9       30.02S
BOSCOBEL       PTSUNNY   83  51  33 NW7       30.00S HX  81
PRAIRIE DU CHI PTSUNNY   77  46  33 NW3       30.00S
PLATTEVILLE    PTSUNNY   78  55  44 W12       30.01S
$$

WIZ056-057-062-063-064-067-068-042100-
SOUTH CENTRAL WISCONSIN

CITY           SKY/WX    TMP DP  RH WIND       PRES   REMARKS
REEDSBURG      MOSUNNY   77  50  38 NW6G16    29.98F
BARABOO/DELLS  MOSUNNY   78  46  32 W12       29.98F
LONE ROCK      NOT AVBL
MINERAL POINT  PTSUNNY   77  46  33 NW7       30.02R
MADISON        PTSUNNY   79  53  40 W8G16     29.98F
MIDDLETON      PTSUNNY   79  47  32 W7        30.00S
WATERTOWN      MOSUNNY   77  54  44 NW10      29.98S
MONROE         PTSUNNY   77  50  38 NW12      30.00S
JANESVILLE     MOSUNNY   79  46  31 W10       29.99R
$$

WIZ051-052-058>065-066-070>072-042100-
SOUTHEAST WISCONSIN

CITY           SKY/WX    TMP DP  RH WIND       PRES   REMARKS
MILWAUKEE      PTSUNNY   80  50  34 W13G21    29.96S HX  80
WAUKESHA       MOSUNNY   75  48  38 W15G23    29.98F
MILWAUKEE/TIMM SUNNY     79  45  29 NW20      29.97S
RACINE         MOSUNNY   79  51  37 NW9       29.97F
BURLINGTON     MOSUNNY   78  49  34 NW9       29.97F
KENOSHA        PTSUNNY   78  58  49 NW9       29.97S
FOND DU LAC    MOSUNNY   78  52  40 NW9       29.97S
SHEBOYGAN      MOSUNNY   76  53  44 W9        29.96S
WEST BEND      MOSUNNY   73  46  38 W9G18     29.97S
JUNEAU         MOSUNNY   75  53  46 W8G17     29.99S
$$

LSZ147-162-042100-
LAKE SUPERIOR

STATION/POSITION TIME  TEMP    WIND        PRES    WAVE
                       AIR SEA DIR/SP/G            HT/PER
                 (UTC) (F)     (DEG/KT/KT) (MB)    (FT/S)
W MID LAKE BUOY  1850   57 57  260/  4/  6 1015.7R   0
DEVILS ISLAND    1900   63     240/  3/  5 1015.6S
PORT WING        1900   69      10/  4/  6 1015.2S
SAXON HARBOR     1900   65      40/  8/  9 1015.2R
$$

LMZ867-665-643>646-042100-
LAKE MICHIGAN

STATION/POSITION TIME  TEMP    WIND        PRES    WAVE
                       AIR SEA DIR/SP/G            HT/PER
                 (UTC) (F)     (DEG/KT/KT) (MB)    (FT/S)
CHAMBERS ISLAND  1900   66      50/  3/  4 1013.5S
N MID LAKE BUOY  1850   63 70  280/  2/  4 1013.5R   1
NORTHPORT PIER   1900   66      50/  2/  4 1013.5S
SISTER BAY       1918             CALM       N/A
ALGOMA LAKESHORE 1912          320/ 10/ 15   N/A
KEWAUNEE LAKESHO 1900   71     340/  5/  9 1013.3R
SHEBOYGAN LAKESH 1900   73     280/ 11/ 14 1014.4R
PORT WASHINGTON  1900   78     310/  8/ 17 1014.9R
ATWATER BUOY     1900   66 53  320/ 10/ 10 1015.8R
MILWAUKEE LAKESH 1900   76     290/ 15/ 21   N/A
KENOSHA   LAKESH 1900   77     280/ 11/ 19 1014.2R
$$

TC  - TEMPERATURE IN CELSIUS
VSB - VISIBILITY IN STATUTE MILES
WCI - WIND CHILL INDEX
HX  - HEAT INDEX




USA.gov is the U.S. government's official web portal to all federal, state and local government web resources and services.